Fort Rucker / Ozark, AL

4:11 PM CDT on April 20, 2018 (GMT -0500)
Fort Rucker / Ozark

Weather History for KLOR - March, 2013

Change the Weather History Date:

Saturday, March 2, 2013

  Actual Average (KOZR) Record (KOZR)
Temperature  
Mean Temperature 39 °F -  
Max Temperature 45 °F 64 °F 82 °F (1997)
Min Temperature 33 °F 43 °F 29 °F (2009)
Degree Days  
Heating Degree Days 26    
Moisture  
Dew Point 25 °F    
Average Humidity 58    
Maximum Humidity 78    
Minimum Humidity 42    
Precipitation  
Precipitation 0.00 in - - ()
Sea Level Pressure  
Sea Level Pressure 30.09 in    
Wind  
Wind Speed 7 mph (NW)    
Max Wind Speed 13 mph    
Max Gust Speed 23 mph    
Visibility 10 miles    
Events      
Averages and records for this station are not official NWS values.
T = Trace of Precipitation, MM = Missing Value Source: NWS Daily Summary

Daily Weather History Graph

Daily Weather History Graph

Search for Another Location

Airport or City:

Astronomy

Mar. 02, 2013 Rise Set
Actual Time 6:08 AM CST 5:42 PM CST
Civil Twilight 5:44 AM CST 6:06 PM CST
Nautical Twilight 5:15 AM CST 6:34 PM CST
Astronomical Twilight 4:47 AM CST 7:02 PM CST
Moon 10:56 PM CST (3/2) 8:58 AM CST (3/2)
Length of Visible Light 12h 22m
Length of Day
11h 33m
Waning Gibbous, 74% of the Moon is Illuminated
Mar 2
Waning Gibbous
Mar 4
Last Quarter
Mar 11
New
Mar 19
First Quarter
Mar 27
Full

Hourly Weather History & Observations

Time (CST) Temp. Windchill Dew Point Humidity Pressure Visibility Wind Dir Wind Speed Gust Speed Precip Events Conditions
12:53 AM 36.0 °F 31.1 °F 25.0 °F 64% 30.08 in - NW 5.8 mph - N/A   Clear
1:53 AM 35.1 °F 31.0 °F 25.0 °F 67% 30.06 in 10.0 mi West 4.6 mph - N/A   Clear
2:53 AM 33.1 °F 30.0 °F 25.0 °F 72% 30.06 in - West 3.5 mph - N/A   Clear
3:53 AM 33.1 °F - 25.0 °F 72% 30.06 in - Calm Calm - N/A   Overcast
4:53 AM 33.1 °F - 25.0 °F 72% 30.06 in 10.0 mi Calm Calm - N/A   Overcast
5:53 AM 33.1 °F - 27.0 °F 78% 30.08 in - Calm Calm - N/A   Overcast
6:53 AM 35.1 °F 32.2 °F 28.0 °F 76% 30.09 in - West 3.5 mph - N/A   Overcast
7:53 AM 37.9 °F 32.7 °F 28.9 °F 70% 30.11 in - WNW 6.9 mph - N/A   Mostly Cloudy
8:29 AM 41.0 °F 36.4 °F 28.4 °F 61% 30.10 in - NW 6.9 mph 19.6 mph N/A   Mostly Cloudy
8:53 AM 41.0 °F 34.3 °F 28.0 °F 60% 30.11 in - NW 11.5 mph 19.6 mph N/A   Overcast
9:03 AM 42.8 °F 37.5 °F 28.4 °F 57% 30.10 in - NNW 9.2 mph 18.4 mph N/A   Overcast
9:53 AM 43.0 °F 37.2 °F 23.0 °F 45% 30.10 in - NW 10.4 mph 17.3 mph N/A   Overcast
10:53 AM 44.1 °F 38.1 °F 23.0 °F 43% 30.10 in - NW 11.5 mph - N/A   Overcast
11:53 AM 45.0 °F 39.3 °F 23.0 °F 42% 30.08 in - West 11.5 mph 23.0 mph N/A   Overcast
12:53 PM 44.1 °F 38.6 °F 23.0 °F 43% 30.05 in - WNW 10.4 mph 23.0 mph N/A   Overcast
1:53 PM 44.1 °F 37.7 °F 23.0 °F 43% 30.05 in - WNW 12.7 mph - N/A   Overcast
2:53 PM 43.0 °F 36.8 °F 24.1 °F 47% 30.06 in - NW 11.5 mph - N/A   Overcast
3:53 PM 43.0 °F 37.7 °F 24.1 °F 47% 30.05 in - NNW 9.2 mph - N/A   Overcast
4:53 PM 42.1 °F 35.7 °F 25.0 °F 51% 30.07 in - NW 11.5 mph - N/A   Overcast
5:53 PM 41.0 °F 37.1 °F 26.1 °F 55% 30.09 in - NW 5.8 mph - N/A   Overcast
6:53 PM 39.9 °F 33.9 °F 26.1 °F 58% 30.10 in - NW 9.2 mph - N/A   Overcast
7:53 PM 39.9 °F 32.9 °F 26.1 °F 58% 30.11 in - NNW 11.5 mph - N/A   Overcast
8:53 PM 39.0 °F 32.8 °F 25.0 °F 57% 30.12 in - NNW 9.2 mph - N/A   Overcast
9:53 PM 37.9 °F 32.1 °F 25.0 °F 60% 30.12 in - NW 8.1 mph - N/A   Overcast
10:53 PM 37.9 °F 32.1 °F 25.0 °F 60% 30.11 in - NW 8.1 mph - N/A   Overcast
11:53 PM 37.9 °F 31.5 °F 24.1 °F 57% 30.11 in - NW 9.2 mph - N/A   Overcast